Flag for Switzerland Weather past 2 weeks in Stäfa, Zurich, Switzerland

Now
78 °F

Warm.


Feels Like: 80 °F
Forecast: 65 / 96 °F
Wind: 3 mph from Northeast

Location: Zurich Town / Ville.

Current Time: Jul 4, 2015 at 12:11:10 AM

Latest Report: Jul 3, 2015 at 11:00 PM


Visibility: N/A

Pressure: 30.14 "Hg

Humidity: 64%

Dew point: 65 °F

Location of StäfaLocation

Historic Weather in Stäfa — Graph

°F

Stäfa temperature yesterday

Maximum temperature yesterday: 92 °F (at 5:00 PM)
Minimum temperature yesterday: 72 °F (at 5:00 AM)
Average temperature yesterday: 81 °F

Past Weeks' High & Low Weather Summary

 TemperatureHumidityPressure
High92 °F (Jul 3, 5:00 PM)97% (Jun 18, 10:00 PM)30.23 "Hg (Jun 18, 10:00 PM)
Low47 °F (Jun 24, 5:00 AM)26% (Jun 25, 8:00 PM)29.70 "Hg (Jun 22, 10:00 PM)
Average66 °F64%30.09 "Hg
* Reported Jun 18 10:00 PM — Jul 3 10:00 PM, Stäfa, Weather by CustomWeather, © 2015

Note: Actual official high and low records may vary slightly from our data, if they occured in-between our weather recording intervals... More about our weather records

Advertising

Stäfa weather history for previous 24 hours

 ConditionsComfort  
Time TempWeatherWind HumidityBarometerVisibility
10:00 PM
Fri, Jul 3
81 °FWarm.5 mph57%30.12 "HgN/A
9:00 PM85 °FWarm.8 mph50%30.11 "HgN/A
8:00 PM84 °FScattered clouds.5 mph56%30.12 "HgN/A
7:00 PM89 °FHot.6 mph44%30.11 "HgN/A
6:00 PM91 °FHot.3 mph36%30.09 "HgN/A
5:00 PM92 °FHot.3 mph36%30.08 "HgN/A
4:00 PM91 °FHot.2 mph36%30.10 "HgN/A
3:00 PM91 °FHot.3 mph38%30.12 "HgN/A
2:00 PM89 °FSunny.2 mph42%30.14 "HgN/A
1:00 PM88 °FHot.2 mph42%30.16 "HgN/A
12:00 PM86 °FWarm.3 mph43%30.17 "HgN/A
11:00 AM83 °FWarm.2 mph46%30.19 "HgN/A
10:00 AM80 °FWarm.1 mph53%30.20 "HgN/A
9:00 AM75 °FMild.1 mph69%30.22 "HgN/A
8:00 AM73 °FMild.1 mph73%30.22 "HgN/A
7:00 AM73 °FMild.1 mph78%30.21 "HgN/A
6:00 AM72 °FMild.1 mph76%30.20 "HgN/A
5:00 AM72 °FMild.1 mph79%30.19 "HgN/A
4:00 AM74 °FMild.1 mph73%30.19 "HgN/A
3:00 AM74 °FMild.1 mph68%30.18 "HgN/A
2:00 AM75 °FMild.1 mph68%30.17 "HgN/A
1:00 AM76 °FMild.2 mph66%30.16 "HgN/A
12:00 AM78 °FWarm.1 mph60%30.14 "HgN/A
Weather by CustomWeather, © 2015

See weather overviewHow to use our weather pages